Location: Byhalia Creek
(34.8270°N, 89.8040°W)
Time: 08:17:03
(UTC+00:00)

Cosmos 2082 Rocket - Pass Details

Date: 22 April 2026
Orbit: 831 x 853 km, 71.0° (Epoch: 15 May)

Event Time Altitude Azimuth Distance (km) Brightness Sun altitude
Exits shadow 07:46:44 19° 335° (NNW) 1,914 4.3 -36.3°
Drops below altitude 10° 07:49:00 10° 355° (N) 2,487 5.1 -36.0°
Sets 07:51:56 0° 9° (N) 3,426 6.2 -35.7°
